TimeCST,TemperatureF,Dew PointF,Humidity,Sea Level PressureIn,VisibilityMPH,Wind Direction,Wind SpeedMPH,Gust SpeedMPH,PrecipitationIn,Events,Conditions,WindDirDegrees,DateUTC
12:53 AM,25.0,21.0,85,30.39,10.0,Calm,Calm,-,N/A,,Overcast,0,2013-01-04 06:53:00
1:53 AM,24.1,19.9,84,30.39,10.0,Calm,Calm,-,N/A,,Overcast,0,2013-01-04 07:53:00
2:53 AM,26.1,21.9,84,30.39,10.0,Calm,Calm,-,N/A,,Overcast,0,2013-01-04 08:53:00
3:48 AM,26.6,21.2,80,30.36,10.0,West,3.5,-,N/A,,Overcast,280,2013-01-04 09:48:00
3:53 AM,26.1,21.9,84,30.40,10.0,West,3.5,-,N/A,,Overcast,280,2013-01-04 09:53:00
4:05 AM,26.6,21.2,80,30.36,10.0,Calm,Calm,-,N/A,,Overcast,0,2013-01-04 10:05:00
4:43 AM,19.4,17.6,93,30.36,10.0,WSW,3.5,-,N/A,,Mostly Cloudy,250,2013-01-04 10:43:00
4:53 AM,21.0,17.1,85,30.40,10.0,West,3.5,-,N/A,,Mostly Cloudy,260,2013-01-04 10:53:00
5:53 AM,23.0,19.9,88,30.40,10.0,SW,4.6,-,N/A,,Overcast,220,2013-01-04 11:53:00
6:44 AM,19.4,17.6,93,30.36,10.0,SSW,4.6,-,N/A,,Scattered Clouds,200,2013-01-04 12:44:00
6:53 AM,19.4,15.8,86,30.36,10.0,SSW,5.8,-,N/A,,Clear,200,2013-01-04 12:53:00
7:53 AM,24.1,19.9,84,30.42,10.0,SW,5.8,-,N/A,,Overcast,230,2013-01-04 13:53:00
8:53 AM,24.1,21.0,88,30.44,10.0,WSW,6.9,-,N/A,,Scattered Clouds,240,2013-01-04 14:53:00
9:53 AM,28.9,21.9,75,30.44,10.0,SW,9.2,-,N/A,,Clear,230,2013-01-04 15:53:00
10:53 AM,30.9,21.0,67,30.44,10.0,SW,10.4,-,N/A,,Clear,230,2013-01-04 16:53:00
11:53 AM,33.1,19.0,56,30.42,10.0,WSW,15.0,-,N/A,,Clear,240,2013-01-04 17:53:00
12:53 PM,35.1,19.0,52,30.39,10.0,WSW,10.4,-,N/A,,Clear,240,2013-01-04 18:53:00
1:53 PM,36.0,21.0,55,30.36,10.0,SW,6.9,-,N/A,,Clear,230,2013-01-04 19:53:00
2:53 PM,37.9,21.0,51,30.35,10.0,WSW,8.1,-,N/A,,Clear,250,2013-01-04 20:53:00
3:53 PM,37.0,21.9,54,30.34,10.0,SW,9.2,-,N/A,,Clear,230,2013-01-04 21:53:00
4:53 PM,35.1,21.9,59,30.34,10.0,South,3.5,-,N/A,,Clear,190,2013-01-04 22:53:00
5:53 PM,28.9,19.0,67,30.34,10.0,SSW,6.9,-,N/A,,Clear,200,2013-01-04 23:53:00
6:53 PM,30.9,19.0,61,30.34,10.0,South,9.2,-,N/A,,Clear,190,2013-01-05 00:53:00
7:53 PM,30.0,19.9,66,30.34,10.0,South,10.4,-,N/A,,Clear,190,2013-01-05 01:53:00
8:53 PM,30.9,19.9,64,30.33,10.0,SSW,10.4,-,N/A,,Clear,200,2013-01-05 02:53:00
9:53 PM,30.0,19.9,66,30.33,10.0,SSW,10.4,-,N/A,,Clear,210,2013-01-05 03:53:00
10:53 PM,28.0,19.0,69,30.32,10.0,SSW,9.2,-,N/A,,Clear,210,2013-01-05 04:53:00
11:53 PM,27.0,19.0,72,30.32,10.0,SSW,10.4,-,N/A,,Clear,200,2013-01-05 05:53:00